When you browse on this site, cookies collect data to enhance your experience and personalize the content and advertising you see.
Visit our Privacy Policy to learn more. By continuing to use the site, you agree to this use of cookies and data.
  • In United Kingdom
  • List of Countries
  • For 7 days
  • Water Temperature
  • Satellite Maps
  • Weather Map
  • Weather Widgets
  • user-avatar
    Login

    Hourly Weather Liepaja

    Today, 19 April, Friday

    Time Temperature Precipitation Wind Pressure Humidity
    00:00 +4°C° 0 mm 3 mps 776 mmHg 63%
    01:00 +4°C° 0 mm 3 mps 776 mmHg 61%
    02:00 +4°C° 0 mm 3 mps 776 mmHg 60%
    03:00 +4°C° 0 mm 2 mps 776 mmHg 59%
    04:00 +4°C° 0 mm 2 mps 776 mmHg 58%
    05:00 +5°C° 0 mm 2 mps 776 mmHg 55%
    06:00 +6°C° 0 mm 2 mps 776 mmHg 53%
    07:00 +8°C° 0 mm 2 mps 776 mmHg 49%
    08:00 +10°C° 0 mm 2 mps 776 mmHg 46%
    09:00 +12°C° 0 mm 2 mps 776 mmHg 43%
    10:00 +13°C° 0 mm 3 mps 776 mmHg 40%
    11:00 +13°C° 0 mm 3 mps 776 mmHg 39%
    12:00 +14°C° 0 mm 4 mps 776 mmHg 38%
    13:00 +15°C° 0 mm 4 mps 776 mmHg 37%
    14:00 +15°C° 0 mm 4 mps 776 mmHg 40%
    15:00 +14°C° 0 mm 4 mps 775 mmHg 42%
    16:00 +14°C° 0 mm 5 mps 775 mmHg 44%
    17:00 +12°C° 0 mm 5 mps 775 mmHg 49%
    18:00 +11°C° 0 mm 4 mps 775 mmHg 55%
    19:00 +8°C° 0 mm 4 mps 775 mmHg 60%
    20:00 +7°C° 0 mm 4 mps 775 mmHg 61%
    21:00 +8°C° 0 mm 3 mps 775 mmHg 63%
    22:00 +7°C° 0 mm 3 mps 775 mmHg 64%
    23:00 +7°C° 0 mm 3 mps 775 mmHg 64%

    Tomorrow, 20 April, Saturday

    Time Temperature Precipitation Wind Pressure Humidity
    00:00 +7°C° 0 mm 2 mps 775 mmHg 63%
    01:00 +7°C° 0 mm 2 mps 774 mmHg 63%
    02:00 +6°C° 0 mm 2 mps 774 mmHg 65%
    03:00 +6°C° 0 mm 2 mps 774 mmHg 67%
    04:00 +5°C° 0 mm 2 mps 774 mmHg 69%
    05:00 +7°C° 0 mm 2 mps 773 mmHg 66%
    06:00 +8°C° 0 mm 3 mps 773 mmHg 63%
    07:00 +9°C° 0 mm 3 mps 773 mmHg 60%
    08:00 +10°C° 0 mm 3 mps 773 mmHg 56%
    09:00 +11°C° 0 mm 3 mps 773 mmHg 51%
    10:00 +12°C° 0 mm 4 mps 773 mmHg 46%
    11:00 +13°C° 0 mm 4 mps 773 mmHg 46%
    12:00 +13°C° 0 mm 4 mps 773 mmHg 46%
    13:00 +13°C° 0 mm 5 mps 772 mmHg 46%
    14:00 +13°C° 0 mm 5 mps 772 mmHg 50%
    15:00 +12°C° 0 mm 5 mps 772 mmHg 54%
    16:00 +10°C° 0 mm 5 mps 771 mmHg 57%
    17:00 +10°C° 0 mm 4 mps 771 mmHg 64%
    18:00 +8°C° 0 mm 4 mps 771 mmHg 70%
    19:00 +6°C° 0 mm 4 mps 771 mmHg 77%
    20:00 +7°C° 0 mm 3 mps 771 mmHg 79%
    21:00 +5°C° 0 mm 3 mps 771 mmHg 82%
    22:00 +6°C° 0 mm 2 mps 770 mmHg 85%
    23:00 +6°C° 0 mm 2 mps 770 mmHg 83%

    Day after tomorrow, 21 April, Sunday

    Time Temperature Precipitation Wind Pressure Humidity
    00:00 +6°C° 0 mm 2 mps 770 mmHg 81%
    01:00 +6°C° 0 mm 2 mps 770 mmHg 80%
    02:00 +6°C° 0 mm 2 mps 769 mmHg 80%
    03:00 +5°C° 0 mm 2 mps 769 mmHg 81%
    04:00 +5°C° 0 mm 2 mps 769 mmHg 81%
    05:00 +6°C° 0 mm 2 mps 769 mmHg 74%
    06:00 +7°C° 0 mm 3 mps 769 mmHg 67%
    07:00 +7°C° 0 mm 3 mps 769 mmHg 60%
    08:00 +9°C° 0 mm 3 mps 769 mmHg 54%
    09:00 +10°C° 0 mm 3 mps 769 mmHg 47%
    10:00 +12°C° 0 mm 3 mps 769 mmHg 41%
    11:00 +12°C° 0 mm 3 mps 769 mmHg 39%
    12:00 +13°C° 0 mm 3 mps 769 mmHg 37%
    13:00 +13°C° 0 mm 3 mps 769 mmHg 36%
    14:00 +13°C° 0 mm 3 mps 769 mmHg 37%
    15:00 +14°C° 0 mm 2 mps 769 mmHg 38%
    16:00 +14°C° 0 mm 2 mps 769 mmHg 39%
    17:00 +13°C° 0 mm 2 mps 769 mmHg 46%
    18:00 +12°C° 0 mm 2 mps 769 mmHg 52%
    19:00 +9°C° 0 mm 2 mps 769 mmHg 58%
    20:00 +9°C° 0 mm 3 mps 769 mmHg 61%
    21:00 +8°C° 0 mm 3 mps 769 mmHg 64%
    22:00 +6°C° 0 mm 4 mps 769 mmHg 66%
    23:00 +7°C° 0 mm 3 mps 769 mmHg 71%

    22 April, Monday

    Time Temperature Precipitation Wind Pressure Humidity
    00:00 +7°C° 0 mm 3 mps 769 mmHg 77%
    01:00 +7°C° 0 mm 3 mps 769 mmHg 82%
    02:00 +7°C° 0 mm 3 mps 769 mmHg 84%
    03:00 +5°C° 0 mm 3 mps 769 mmHg 85%
    04:00 +5°C° 0 mm 4 mps 769 mmHg 87%
    05:00 +6°C° 0 mm 4 mps 770 mmHg 81%
    06:00 +8°C° 0 mm 4 mps 770 mmHg 75%
    07:00 +10°C° 0 mm 4 mps 770 mmHg 69%
    08:00 +11°C° 0 mm 4 mps 770 mmHg 64%
    09:00 +13°C° 0 mm 4 mps 770 mmHg 59%
    10:00 +15°C° 0 mm 4 mps 770 mmHg 55%
    11:00 +16°C° 0 mm 3 mps 770 mmHg 52%
    12:00 +17°C° 0 mm 3 mps 770 mmHg 49%
    13:00 +18°C° 0 mm 3 mps 770 mmHg 46%
    14:00 +17°C° 0 mm 2 mps 770 mmHg 47%
    15:00 +17°C° 0 mm 2 mps 770 mmHg 48%
    16:00 +18°C° 0 mm 1 mps 769 mmHg 50%
    17:00 +16°C° 0 mm 2 mps 770 mmHg 53%
    18:00 +15°C° 0 mm 2 mps 770 mmHg 57%
    19:00 +14°C° 0 mm 2 mps 770 mmHg 61%
    20:00 +12°C° 0 mm 3 mps 770 mmHg 60%
    21:00 +12°C° 0 mm 4 mps 770 mmHg 59%
    22:00 +10°C° 0 mm 5 mps 770 mmHg 59%
    23:00 +10°C° 0 mm 4 mps 770 mmHg 61%

    23 April, Tuesday

    Time Temperature Precipitation Wind Pressure Humidity
    00:00 +8°C° 0 mm 4 mps 770 mmHg 63%
    01:00 +8°C° 0 mm 4 mps 770 mmHg 65%
    02:00 +7°C° 0 mm 4 mps 770 mmHg 65%
    03:00 +7°C° 0 mm 4 mps 770 mmHg 66%
    04:00 +6°C° 0 mm 4 mps 770 mmHg 67%
    05:00 +7°C° 0 mm 5 mps 770 mmHg 62%
    06:00 +9°C° 0 mm 5 mps 770 mmHg 58%
    07:00 +10°C° 0 mm 6 mps 770 mmHg 53%
    08:00 +11°C° 0 mm 6 mps 770 mmHg 50%
    09:00 +13°C° 0 mm 6 mps 770 mmHg 46%
    10:00 +14°C° 0 mm 6 mps 770 mmHg 43%
    11:00 +15°C° 0 mm 6 mps 770 mmHg 42%
    12:00 +15°C° 0 mm 6 mps 769 mmHg 41%
    13:00 +16°C° 0 mm 6 mps 769 mmHg 40%
    14:00 +16°C° 0 mm 6 mps 769 mmHg 41%
    15:00 +16°C° 0 mm 6 mps 768 mmHg 42%
    16:00 +16°C° 0 mm 6 mps 768 mmHg 43%
    17:00 +15°C° 0 mm 6 mps 768 mmHg 48%
    18:00 +13°C° 0 mm 6 mps 768 mmHg 52%
    19:00 +12°C° 0 mm 5 mps 767 mmHg 56%
    20:00 +11°C° 0 mm 6 mps 768 mmHg 57%
    21:00 +10°C° 0 mm 6 mps 768 mmHg 58%
    22:00 +10°C° 0 mm 6 mps 768 mmHg 58%
    23:00 +9°C° 0 mm 6 mps 768 mmHg 59%

    24 April, Wednesday

    Time Temperature Precipitation Wind Pressure Humidity
    00:00 +9°C° 0 mm 6 mps 768 mmHg 60%
    01:00 +9°C° 0 mm 6 mps 767 mmHg 61%
    02:00 +8°C° 0 mm 6 mps 767 mmHg 62%
    03:00 +8°C° 0 mm 6 mps 767 mmHg 64%
    04:00 +8°C° 0 mm 6 mps 767 mmHg 65%
    05:00 +9°C° 0 mm 7 mps 767 mmHg 62%
    06:00 +10°C° 0 mm 7 mps 767 mmHg 60%
    07:00 +10°C° 0 mm 7 mps 767 mmHg 57%
    08:00 +12°C° 0 mm 7 mps 767 mmHg 53%
    09:00 +13°C° 0 mm 8 mps 767 mmHg 48%
    10:00 +15°C° 0 mm 8 mps 767 mmHg 44%
    11:00 +16°C° 0 mm 8 mps 767 mmHg 43%
    12:00 +16°C° 0 mm 7 mps 766 mmHg 42%
    13:00 +17°C° 0 mm 7 mps 766 mmHg 40%
    14:00 +17°C° 0 mm 7 mps 766 mmHg 41%
    15:00 +17°C° 0 mm 7 mps 766 mmHg 42%
    16:00 +17°C° 0 mm 6 mps 766 mmHg 42%
    17:00 +16°C° 0 mm 6 mps 766 mmHg 47%
    18:00 +14°C° 0 mm 6 mps 766 mmHg 51%
    19:00 +13°C° 0 mm 6 mps 766 mmHg 55%
    20:00 +13°C° 0 mm 6 mps 765 mmHg 56%
    21:00 +11°C° 0 mm 6 mps 765 mmHg 56%
    22:00 +11°C° 0 mm 6 mps 765 mmHg 57%
    23:00 +11°C° 0 mm 6 mps 765 mmHg 58%
    Show more